PAA453 KMIA-SCEL

Flight info

Callsign PAA453
Flight time N/A
Altitude 31000
Route MIA2 GWAVA DCT URSUS UL780 LEPEG/N0494F330 UL780 BUXOS/N0492F350 UL780 MOXES/N0483F370 DCT NIGNA DCT SORTA UL780 SULNA DCT TOY UV208 SIMOK ANDES1
Aircraft L101/H-SDFHIRWXY/S

Departure

Time 2026-05-07 12:37
Airport Miami International Airport (KMIA)

Arrival

Time N/A
Airport Comodoro Arturo Merino Benítez International Airport (SCEL)
Time Latitude Longitude Altitude Speed Heading
2026-05-07 11:38 25.79452 -80.28330 25 ft 0 kts 287°
2026-05-07 12:21 25.79447 -80.28309 25 ft 4 kts 275°
2026-05-07 12:21 25.79450 -80.28281 25 ft 4 kts 238°
2026-05-07 12:22 25.79464 -80.28268 29 ft 1 kts 175°
2026-05-07 12:29 25.79460 -80.28268 30 ft 3 kts 175°
2026-05-07 12:29 25.79425 -80.28264 24 ft 7 kts 175°
2026-05-07 12:29 25.79361 -80.28265 28 ft 11 kts 190°
2026-05-07 12:30 25.79291 -80.28316 29 ft 13 kts 221°
2026-05-07 12:30 25.79220 -80.28384 27 ft 14 kts 206°
2026-05-07 12:30 25.79126 -80.28436 27 ft 16 kts 212°
2026-05-07 12:30 25.79025 -80.28507 21 ft 18 kts 213°
2026-05-07 12:31 25.78963 -80.28611 22 ft 17 kts 262°
2026-05-07 12:31 25.78953 -80.28752 18 ft 19 kts 268°
2026-05-07 12:31 25.78941 -80.28900 21 ft 19 kts 254°
2026-05-07 12:31 25.78910 -80.29040 22 ft 19 kts 260°
2026-05-07 12:32 25.78903 -80.29190 20 ft 20 kts 266°
2026-05-07 12:32 25.78895 -80.29342 25 ft 19 kts 267°
2026-05-07 12:32 25.78889 -80.29484 27 ft 18 kts 267°
2026-05-07 12:32 25.78883 -80.29628 26 ft 19 kts 267°
2026-05-07 12:33 25.78870 -80.29932 26 ft 19 kts 267°
2026-05-07 12:33 25.78865 -80.30082 25 ft 21 kts 267°
2026-05-07 12:33 25.78857 -80.30255 25 ft 24 kts 267°
2026-05-07 12:34 25.78849 -80.30436 22 ft 23 kts 267°
2026-05-07 12:34 25.78841 -80.30621 20 ft 25 kts 268°
2026-05-07 12:34 25.78834 -80.30813 20 ft 25 kts 268°
2026-05-07 12:34 25.78825 -80.31000 23 ft 24 kts 267°
2026-05-07 12:35 25.78818 -80.31187 22 ft 24 kts 267°
2026-05-07 12:35 25.78811 -80.31365 26 ft 17 kts 267°
2026-05-07 12:35 25.78779 -80.31471 28 ft 15 kts 212°
2026-05-07 12:35 25.78673 -80.31469 21 ft 13 kts 174°
2026-05-07 12:36 25.78627 -80.31403 20 ft 11 kts 99°
2026-05-07 12:36 25.78621 -80.31317 22 ft 13 kts 90°
2026-05-07 12:36 25.78628 -80.31103 24 ft 51 kts 86°
2026-05-07 12:36 25.78655 -80.30505 22 ft 102 kts 89°
2026-05-07 12:37 25.78691 -80.29552 24 ft 143 kts 88°
2026-05-07 12:37 25.78756 -80.28352 253 ft 156 kts 86°
2026-05-07 12:37 25.78821 -80.27143 643 ft 161 kts 88°
2026-05-07 12:37 25.78655 -80.25862 832 ft 175 kts 111°
2026-05-07 12:38 25.77971 -80.24772 1260 ft 173 kts 138°
2026-05-07 12:38 25.76861 -80.24269 1550 ft 180 kts 171°
2026-05-07 12:38 25.75558 -80.24114 1777 ft 194 kts 173°
2026-05-07 12:38 25.74195 -80.23944 2205 ft 208 kts 173°
2026-05-07 12:39 25.72639 -80.23747 2267 ft 241 kts 173°
2026-05-07 12:39 25.70896 -80.23532 2484 ft 262 kts 174°
2026-05-07 12:39 25.69053 -80.23369 2997 ft 265 kts 177°
2026-05-07 12:39 25.67203 -80.23281 3476 ft 269 kts 175°
2026-05-07 12:40 25.65357 -80.22943 4129 ft 269 kts 164°
2026-05-07 12:40 25.64165 -80.22530 4472 ft 273 kts 158°
2026-05-07 12:40 25.61878 -80.21366 5257 ft 275 kts 150°
2026-05-07 12:40 25.60201 -80.20307 5777 ft 280 kts 148°
2026-05-07 12:41 25.58531 -80.19166 6278 ft 284 kts 147°
2026-05-07 12:41 25.56852 -80.17974 6772 ft 288 kts 146°
2026-05-07 12:41 25.55170 -80.16769 7341 ft 287 kts 146°
2026-05-07 12:41 25.53488 -80.15557 7854 ft 290 kts 146°
2026-05-07 12:42 25.52347 -80.14736 8210 ft 290 kts 146°
2026-05-07 12:42 25.50647 -80.13519 8749 ft 292 kts 146°
2026-05-07 12:42 25.48935 -80.12298 9263 ft 294 kts 146°
2026-05-07 12:42 25.47235 -80.11086 9784 ft 295 kts 145°
2026-05-07 12:43 25.45503 -80.09855 10258 ft 297 kts 145°
2026-05-07 12:43 25.43728 -80.08598 10452 ft 310 kts 145°
2026-05-07 12:43 25.41866 -80.07275 10557 ft 325 kts 146°
2026-05-07 12:43 25.39920 -80.05889 10686 ft 340 kts 146°
2026-05-07 12:44 25.37891 -80.04445 10792 ft 353 kts 146°
2026-05-07 12:44 25.35792 -80.02957 10906 ft 365 kts 146°
2026-05-07 12:44 25.33618 -80.01417 11021 ft 377 kts 146°
2026-05-07 12:44 25.31384 -79.99841 11235 ft 383 kts 146°
2026-05-07 12:45 25.29130 -79.98256 11569 ft 386 kts 146°
2026-05-07 12:45 25.26855 -79.96657 11919 ft 388 kts 146°
2026-05-07 12:45 25.24575 -79.95035 12297 ft 390 kts 146°
2026-05-07 12:45 25.22290 -79.93400 12665 ft 393 kts 146°
2026-05-07 12:46 25.19988 -79.91756 13020 ft 395 kts 146°
2026-05-07 12:46 25.17672 -79.90109 13389 ft 397 kts 146°
2026-05-07 12:46 25.15336 -79.88456 13762 ft 399 kts 146°
2026-05-07 12:46 25.12991 -79.86789 14082 ft 402 kts 146°
2026-05-07 12:47 25.10637 -79.85108 14370 ft 405 kts 146°
2026-05-07 12:47 25.08266 -79.83410 14669 ft 408 kts 146°
2026-05-07 12:47 25.05876 -79.81703 14974 ft 411 kts 146°
2026-05-07 12:47 25.03466 -79.79982 15275 ft 414 kts 146°
2026-05-07 12:48 25.01039 -79.78252 15573 ft 417 kts 146°
2026-05-07 12:48 24.98592 -79.76510 15871 ft 420 kts 146°
2026-05-07 12:48 24.96127 -79.74755 16170 ft 423 kts 146°
2026-05-07 12:48 24.93643 -79.72990 16477 ft 426 kts 146°
2026-05-07 12:49 24.91145 -79.71207 16785 ft 429 kts 146°
2026-05-07 12:49 24.88663 -79.69438 17087 ft 432 kts 146°
2026-05-07 12:49 24.86128 -79.67641 17379 ft 435 kts 146°
2026-05-07 12:49 24.83574 -79.65830 17673 ft 438 kts 146°
2026-05-07 12:50 24.81006 -79.64007 17940 ft 441 kts 146°
2026-05-07 12:50 24.78419 -79.62167 18244 ft 444 kts 146°
2026-05-07 12:50 24.75814 -79.60317 18529 ft 447 kts 146°
2026-05-07 12:50 24.73195 -79.58458 18814 ft 449 kts 147°
2026-05-07 12:51 24.70567 -79.56598 19108 ft 451 kts 147°
2026-05-07 12:51 24.67922 -79.54727 19387 ft 453 kts 147°
2026-05-07 12:51 24.65267 -79.52847 19685 ft 455 kts 147°
2026-05-07 12:51 24.62599 -79.50957 20010 ft 457 kts 147°
2026-05-07 12:52 24.59925 -79.49065 20305 ft 459 kts 147°
2026-05-07 12:52 24.57233 -79.47160 20591 ft 461 kts 147°
2026-05-07 12:52 24.54529 -79.45249 20889 ft 463 kts 147°
2026-05-07 12:52 24.51818 -79.43338 21068 ft 464 kts 147°
2026-05-07 12:53 24.49097 -79.41420 21203 ft 466 kts 147°
2026-05-07 12:53 24.46367 -79.39500 21340 ft 467 kts 147°
2026-05-07 12:53 24.43629 -79.37570 21497 ft 468 kts 147°
2026-05-07 12:53 24.40892 -79.35633 21640 ft 469 kts 147°
2026-05-07 12:54 24.38141 -79.33688 21787 ft 471 kts 147°
2026-05-07 12:54 24.35387 -79.31747 21934 ft 471 kts 147°
2026-05-07 12:54 24.32620 -79.29802 22101 ft 473 kts 147°
2026-05-07 12:54 24.29850 -79.27856 22255 ft 474 kts 147°
2026-05-07 12:55 24.27068 -79.25901 22425 ft 475 kts 147°
2026-05-07 12:55 24.24285 -79.23946 22590 ft 476 kts 148°
2026-05-07 12:55 24.21487 -79.21984 22738 ft 477 kts 148°
2026-05-07 12:55 24.18685 -79.20018 22887 ft 478 kts 148°
2026-05-07 12:56 24.15882 -79.18048 23033 ft 479 kts 148°
2026-05-07 12:56 24.13069 -79.16070 23165 ft 481 kts 148°
2026-05-07 12:56 24.10256 -79.14097 23305 ft 482 kts 148°
2026-05-07 12:56 24.07421 -79.12116 23446 ft 483 kts 148°
2026-05-07 12:57 24.04582 -79.10152 23588 ft 484 kts 150°
2026-05-07 12:57 24.01538 -79.08597 23702 ft 483 kts 165°
2026-05-07 12:57 23.98232 -79.07998 23839 ft 480 kts 180°
2026-05-07 12:57 23.95064 -79.08005 23997 ft 479 kts 182°
2026-05-07 12:58 23.91643 -79.07964 24126 ft 481 kts 179°
2026-05-07 12:58 23.88289 -79.07762 24228 ft 483 kts 178°
2026-05-07 12:58 23.84927 -79.07566 24334 ft 485 kts 179°
2026-05-07 12:58 23.81550 -79.07491 24474 ft 486 kts 181°
2026-05-07 12:59 23.78166 -79.07526 24616 ft 487 kts 182°
2026-05-07 12:59 23.74781 -79.07599 24764 ft 488 kts 183°
2026-05-07 12:59 23.71382 -79.07673 24915 ft 489 kts 183°
2026-05-07 12:59 23.67972 -79.07737 25076 ft 490 kts 182°
2026-05-07 13:00 23.64560 -79.07799 25212 ft 492 kts 182°
2026-05-07 13:00 23.61135 -79.07865 25349 ft 493 kts 182°
2026-05-07 13:00 23.57698 -79.07937 25491 ft 494 kts 182°
2026-05-07 13:00 23.54297 -79.08016 25637 ft 495 kts 183°
2026-05-07 13:01 23.50852 -79.08098 25784 ft 496 kts 183°
2026-05-07 13:01 23.47393 -79.08174 25958 ft 498 kts 182°
2026-05-07 13:01 23.43922 -79.08246 26119 ft 499 kts 183°
2026-05-07 13:01 23.40448 -79.08321 26276 ft 500 kts 183°
2026-05-07 13:02 23.36962 -79.08401 26445 ft 502 kts 183°
2026-05-07 13:02 23.33461 -79.08480 26574 ft 504 kts 182°
2026-05-07 13:02 23.29951 -79.08557 26721 ft 505 kts 182°
2026-05-07 13:02 23.26436 -79.08629 26873 ft 507 kts 182°
2026-05-07 13:03 23.22906 -79.08702 27057 ft 508 kts 182°
2026-05-07 13:03 23.19365 -79.08782 27221 ft 509 kts 182°
2026-05-07 13:03 23.15817 -79.08863 27397 ft 511 kts 182°
2026-05-07 13:03 23.12261 -79.08941 27574 ft 512 kts 182°
2026-05-07 13:04 23.08686 -79.09019 27739 ft 514 kts 182°
2026-05-07 13:04 23.05109 -79.09100 27901 ft 515 kts 183°
2026-05-07 13:04 23.01514 -79.09185 28064 ft 517 kts 182°
2026-05-07 13:04 22.97911 -79.09267 28224 ft 518 kts 182°
2026-05-07 13:05 22.94300 -79.09346 28411 ft 520 kts 182°
2026-05-07 13:05 22.90677 -79.09422 28587 ft 522 kts 182°
2026-05-07 13:05 22.87089 -79.09502 28774 ft 523 kts 182°
2026-05-07 13:05 22.83445 -79.09583 28953 ft 525 kts 182°
2026-05-07 13:06 22.79795 -79.09665 29180 ft 525 kts 182°
2026-05-07 13:06 22.76142 -79.09746 29436 ft 525 kts 182°
2026-05-07 13:06 22.72489 -79.09829 29717 ft 525 kts 182°
2026-05-07 13:06 22.68837 -79.09911 29994 ft 525 kts 182°
2026-05-07 13:07 22.65189 -79.09989 30254 ft 524 kts 182°
2026-05-07 13:07 22.61544 -79.10068 30526 ft 523 kts 182°
2026-05-07 13:07 22.57911 -79.10144 30794 ft 522 kts 182°
2026-05-07 13:07 22.54266 -79.10221 30960 ft 524 kts 182°
2026-05-07 13:08 22.46945 -79.10372 31052 ft 526 kts 182°
2026-05-07 13:08 22.39647 -79.10528 31063 ft 524 kts 182°
2026-05-07 13:09 22.32358 -79.10688 31079 ft 524 kts 182°
2026-05-07 13:09 22.25064 -79.10847 31068 ft 524 kts 182°
2026-05-07 13:10 22.17769 -79.11019 31070 ft 524 kts 182°
2026-05-07 13:10 22.10475 -79.11175 31084 ft 524 kts 182°
2026-05-07 13:11 22.03218 -79.11328 31077 ft 525 kts 182°
2026-05-07 13:11 21.95907 -79.11495 31073 ft 526 kts 182°
2026-05-07 13:12 21.88601 -79.11641 31080 ft 525 kts 182°
2026-05-07 13:12 21.81293 -79.11803 31073 ft 525 kts 182°
2026-05-07 13:13 21.73989 -79.11977 31073 ft 525 kts 182°
2026-05-07 13:13 21.66679 -79.12138 31075 ft 525 kts 181°
2026-05-07 13:14 21.59363 -79.12293 31069 ft 526 kts 182°
2026-05-07 13:14 21.52052 -79.12464 31069 ft 526 kts 182°
2026-05-07 13:15 21.44739 -79.12632 31064 ft 526 kts 181°
2026-05-07 13:15 21.37424 -79.12790 31065 ft 526 kts 181°
2026-05-07 13:16 21.30151 -79.12954 31062 ft 526 kts 181°
2026-05-07 13:16 21.22832 -79.13111 31058 ft 526 kts 181°
2026-05-07 13:17 21.15510 -79.13283 31063 ft 526 kts 181°
2026-05-07 13:17 21.08183 -79.13443 31059 ft 526 kts 181°
2026-05-07 13:18 21.00848 -79.13609 31063 ft 526 kts 181°
2026-05-07 13:18 20.93528 -79.13776 31063 ft 526 kts 181°
2026-05-07 13:19 20.86256 -79.13937 31060 ft 526 kts 181°
2026-05-07 13:19 20.78938 -79.14097 31061 ft 526 kts 181°
2026-05-07 13:20 20.71626 -79.14258 31060 ft 526 kts 181°
2026-05-07 13:20 20.64295 -79.14416 31062 ft 526 kts 181°
2026-05-07 13:21 20.56958 -79.14575 31058 ft 526 kts 181°
2026-05-07 13:21 20.49634 -79.14739 31059 ft 526 kts 181°
2026-05-07 13:22 20.42319 -79.14904 31059 ft 526 kts 181°
2026-05-07 13:22 20.34996 -79.15067 31057 ft 526 kts 181°
2026-05-07 13:23 20.27709 -79.15218 31062 ft 526 kts 181°
2026-05-07 13:23 20.20388 -79.15387 31115 ft 526 kts 181°
2026-05-07 13:24 20.16747 -79.15474 31491 ft 522 kts 181°
2026-05-07 13:24 20.13115 -79.15556 31831 ft 520 kts 181°
2026-05-07 13:24 20.09501 -79.15634 32113 ft 519 kts 181°
2026-05-07 13:24 20.05897 -79.15710 32378 ft 517 kts 181°
2026-05-07 13:25 20.02298 -79.15791 32670 ft 516 kts 181°
2026-05-07 13:25 19.98706 -79.15888 32891 ft 517 kts 182°
2026-05-07 13:25 19.95102 -79.16012 33020 ft 519 kts 182°
2026-05-07 13:25 19.91484 -79.16141 33040 ft 521 kts 182°
2026-05-07 13:26 19.84246 -79.16387 33049 ft 519 kts 182°
2026-05-07 13:26 19.77044 -79.16637 33053 ft 517 kts 182°
2026-05-07 13:27 19.69896 -79.16889 33051 ft 518 kts 182°
2026-05-07 13:27 19.62692 -79.17140 33049 ft 518 kts 182°
2026-05-07 13:28 19.56657 -79.17355 33055 ft 518 kts 182°
2026-05-07 13:28 19.49455 -79.17597 33048 ft 517 kts 182°
2026-05-07 13:29 19.42305 -79.17852 33057 ft 518 kts 182°
2026-05-07 13:29 19.35087 -79.18091 33046 ft 519 kts 182°
2026-05-07 13:30 19.27884 -79.18343 33054 ft 518 kts 182°
2026-05-07 13:30 19.20673 -79.18602 33047 ft 518 kts 182°
2026-05-07 13:31 19.13459 -79.18853 33040 ft 518 kts 182°
2026-05-07 13:31 19.06259 -79.19104 33042 ft 518 kts 182°
2026-05-07 13:32 18.99045 -79.19342 33042 ft 518 kts 182°
2026-05-07 13:32 18.91836 -79.19596 33042 ft 518 kts 182°
2026-05-07 13:33 18.84689 -79.19847 33041 ft 518 kts 182°
2026-05-07 13:33 18.77491 -79.20089 33047 ft 517 kts 181°
2026-05-07 13:34 18.66712 -79.20456 33040 ft 516 kts 182°
2026-05-07 13:35 18.59537 -79.20710 33059 ft 516 kts 182°
2026-05-07 13:35 18.52351 -79.20959 33046 ft 516 kts 181°
2026-05-07 13:36 18.45167 -79.21210 33041 ft 516 kts 181°
2026-05-07 13:36 18.37999 -79.21462 33036 ft 515 kts 181°
2026-05-07 13:37 18.30844 -79.21705 33043 ft 515 kts 181°
2026-05-07 13:37 18.23680 -79.21957 33056 ft 515 kts 181°
2026-05-07 13:38 18.16521 -79.22202 33036 ft 515 kts 181°
2026-05-07 13:38 18.09364 -79.22432 33051 ft 515 kts 181°
2026-05-07 13:39 18.02196 -79.22671 33034 ft 516 kts 181°
2026-05-07 13:39 17.95008 -79.22933 33053 ft 516 kts 181°
2026-05-07 13:40 17.87829 -79.23171 33032 ft 516 kts 181°
2026-05-07 13:40 17.80690 -79.23425 33045 ft 516 kts 181°
2026-05-07 13:41 17.73502 -79.23662 33049 ft 516 kts 181°
2026-05-07 13:41 17.66319 -79.23903 33036 ft 516 kts 181°
2026-05-07 13:42 17.59181 -79.24145 33048 ft 516 kts 181°
2026-05-07 13:42 17.51955 -79.24392 33029 ft 516 kts 181°
2026-05-07 13:43 17.44825 -79.24635 33045 ft 516 kts 181°
2026-05-07 13:43 17.37632 -79.24882 33037 ft 516 kts 181°
2026-05-07 13:44 17.30448 -79.25126 33027 ft 517 kts 181°
2026-05-07 13:44 17.23259 -79.25363 33042 ft 517 kts 181°
2026-05-07 13:45 17.16063 -79.25612 33040 ft 517 kts 181°
2026-05-07 13:45 17.08876 -79.25864 33039 ft 517 kts 181°
2026-05-07 13:46 17.01732 -79.26096 33033 ft 516 kts 181°
2026-05-07 13:46 16.94509 -79.26335 33033 ft 516 kts 181°
2026-05-07 13:47 16.87385 -79.26573 33031 ft 516 kts 181°
2026-05-07 13:47 16.80207 -79.26830 33034 ft 515 kts 181°
2026-05-07 13:48 16.73034 -79.27060 33030 ft 515 kts 180°
2026-05-07 13:48 16.65863 -79.27293 33033 ft 516 kts 181°
2026-05-07 13:49 16.58677 -79.27540 33029 ft 516 kts 181°
2026-05-07 13:49 16.51501 -79.27786 33028 ft 516 kts 181°
2026-05-07 13:50 16.44327 -79.28016 33026 ft 516 kts 181°
2026-05-07 13:50 16.37199 -79.28269 33028 ft 516 kts 181°
2026-05-07 13:51 16.30020 -79.28507 33026 ft 516 kts 181°
2026-05-07 13:51 16.22845 -79.28754 33014 ft 516 kts 181°
2026-05-07 13:52 16.15662 -79.28992 33019 ft 516 kts 180°
2026-05-07 13:52 16.08481 -79.29222 33018 ft 516 kts 180°
2026-05-07 13:53 16.01307 -79.29468 33015 ft 516 kts 181°
2026-05-07 13:53 15.94172 -79.29714 33021 ft 516 kts 180°
2026-05-07 13:54 15.86989 -79.29939 33002 ft 516 kts 180°
2026-05-07 13:54 15.79818 -79.30181 33019 ft 516 kts 181°
2026-05-07 13:55 15.72637 -79.30418 33019 ft 516 kts 180°
2026-05-07 13:55 15.65470 -79.30662 33014 ft 516 kts 181°
2026-05-07 13:56 15.58292 -79.30911 33017 ft 515 kts 180°
2026-05-07 13:56 15.51129 -79.31144 33012 ft 516 kts 180°
2026-05-07 13:57 15.43960 -79.31398 33017 ft 515 kts 180°
2026-05-07 13:57 15.36792 -79.31612 33012 ft 515 kts 180°
2026-05-07 13:58 15.29666 -79.31852 33015 ft 515 kts 181°
2026-05-07 13:58 15.22503 -79.32094 33006 ft 515 kts 180°
2026-05-07 13:59 15.15346 -79.32327 33006 ft 515 kts 180°
2026-05-07 13:59 15.08187 -79.32571 33007 ft 515 kts 180°
2026-05-07 14:00 15.01017 -79.32822 33004 ft 515 kts 182°
2026-05-07 14:00 14.93853 -79.33202 33007 ft 515 kts 180°
2026-05-07 14:01 14.86693 -79.33389 33004 ft 515 kts 180°
2026-05-07 14:01 14.79535 -79.33638 33005 ft 514 kts 181°
2026-05-07 14:02 14.72372 -79.33933 32998 ft 515 kts 181°
2026-05-07 14:02 14.65249 -79.34191 33003 ft 515 kts 181°
2026-05-07 14:03 14.58091 -79.34470 32998 ft 515 kts 181°
2026-05-07 14:03 14.50938 -79.34755 33004 ft 514 kts 181°
2026-05-07 14:04 14.43785 -79.35020 32998 ft 514 kts 181°
2026-05-07 14:04 14.36631 -79.35306 33004 ft 514 kts 181°
2026-05-07 14:05 14.29472 -79.35603 32996 ft 515 kts 181°
2026-05-07 14:05 14.22315 -79.35873 32995 ft 514 kts 181°
2026-05-07 14:06 14.15165 -79.36141 32995 ft 514 kts 181°
2026-05-07 14:06 14.08014 -79.36421 32995 ft 514 kts 181°
2026-05-07 14:07 14.00864 -79.36702 32994 ft 514 kts 181°
2026-05-07 14:07 13.93708 -79.36987 32996 ft 514 kts 180°
2026-05-07 14:08 13.86557 -79.37261 32989 ft 514 kts 181°
2026-05-07 14:08 13.79458 -79.37543 32995 ft 514 kts 180°
2026-05-07 14:09 13.72311 -79.37821 32994 ft 514 kts 181°
2026-05-07 14:09 13.65158 -79.38100 32996 ft 514 kts 180°
2026-05-07 14:10 13.58016 -79.38371 32985 ft 514 kts 180°
2026-05-07 14:10 13.50881 -79.38647 32987 ft 512 kts 180°
2026-05-07 14:11 13.43763 -79.38921 32994 ft 512 kts 180°
2026-05-07 14:11 13.36638 -79.39191 32985 ft 512 kts 180°
2026-05-07 14:12 13.29515 -79.39471 32985 ft 512 kts 180°
2026-05-07 14:12 13.22390 -79.39748 32979 ft 512 kts 180°
2026-05-07 14:13 13.15328 -79.40022 32985 ft 511 kts 180°
2026-05-07 14:13 13.08210 -79.40286 32979 ft 511 kts 180°
2026-05-07 14:14 13.01103 -79.40567 32986 ft 511 kts 180°
2026-05-07 14:14 12.93996 -79.40842 32976 ft 511 kts 180°
2026-05-07 14:15 12.86884 -79.41116 32980 ft 511 kts 180°
2026-05-07 14:15 12.80978 -79.41337 32974 ft 510 kts 180°
2026-05-07 14:16 12.73883 -79.41619 32984 ft 510 kts 180°
2026-05-07 14:16 12.66794 -79.41890 32973 ft 510 kts 180°
2026-05-07 14:17 12.59715 -79.42163 32972 ft 509 kts 180°
2026-05-07 14:17 12.52627 -79.42434 32973 ft 509 kts 180°
2026-05-07 14:18 12.45557 -79.42701 32980 ft 507 kts 180°
2026-05-07 14:18 12.38507 -79.42972 32970 ft 506 kts 180°
2026-05-07 14:19 12.31470 -79.43249 32973 ft 506 kts 180°
2026-05-07 14:19 12.24478 -79.43516 32969 ft 506 kts 180°
2026-05-07 14:20 12.17443 -79.43781 32971 ft 505 kts 180°
2026-05-07 14:20 12.10419 -79.44054 32967 ft 504 kts 180°
2026-05-07 14:21 12.03414 -79.44325 32969 ft 504 kts 180°
2026-05-07 14:21 11.96408 -79.44593 32970 ft 504 kts 180°
2026-05-07 14:22 11.89398 -79.44856 32965 ft 504 kts 180°
2026-05-07 14:22 11.82392 -79.45126 32972 ft 503 kts 180°
2026-05-07 14:23 11.75396 -79.45391 32963 ft 502 kts 180°
2026-05-07 14:23 11.68423 -79.45657 32962 ft 501 kts 180°
2026-05-07 14:24 11.61450 -79.45926 32968 ft 501 kts 180°
2026-05-07 14:24 11.54471 -79.46194 32959 ft 502 kts 180°
2026-05-07 14:25 11.47534 -79.46457 32966 ft 501 kts 180°
2026-05-07 14:25 11.40559 -79.46720 32967 ft 501 kts 180°
2026-05-07 14:26 11.33589 -79.46986 32961 ft 501 kts 180°
2026-05-07 14:26 11.26619 -79.47255 32966 ft 501 kts 180°
2026-05-07 14:27 11.19653 -79.47527 32964 ft 501 kts 180°
2026-05-07 14:27 11.12686 -79.47788 32960 ft 501 kts 180°
2026-05-07 14:28 11.05720 -79.48055 32971 ft 501 kts 180°
2026-05-07 14:28 10.98749 -79.48306 32963 ft 501 kts 180°
2026-05-07 14:29 10.91783 -79.48572 32963 ft 501 kts 180°
2026-05-07 14:29 10.84870 -79.48839 32963 ft 501 kts 180°
2026-05-07 14:30 10.77903 -79.49106 32963 ft 501 kts 180°
2026-05-07 14:30 10.70932 -79.49371 32968 ft 501 kts 180°
2026-05-07 14:31 10.63967 -79.49637 32964 ft 501 kts 180°
2026-05-07 14:31 10.56994 -79.49903 32966 ft 501 kts 180°
2026-05-07 14:32 10.50030 -79.50159 32964 ft 501 kts 180°
2026-05-07 14:32 10.43064 -79.50402 32964 ft 501 kts 180°
2026-05-07 14:33 10.36099 -79.50643 32965 ft 501 kts 180°
2026-05-07 14:33 10.29127 -79.50899 32963 ft 501 kts 180°
2026-05-07 14:34 10.22147 -79.51144 32965 ft 501 kts 180°
2026-05-07 14:34 10.15218 -79.51391 32965 ft 502 kts 180°
2026-05-07 14:35 10.08244 -79.51637 32966 ft 501 kts 180°
2026-05-07 14:35 10.01263 -79.51881 32969 ft 502 kts 181°
2026-05-07 14:36 9.94296 -79.52132 32961 ft 501 kts 181°
2026-05-07 14:36 9.87332 -79.52378 32966 ft 501 kts 181°
2026-05-07 14:37 9.80369 -79.52626 32958 ft 500 kts 181°
2026-05-07 14:37 9.69918 -79.52992 32960 ft 500 kts 181°
2026-05-07 14:38 9.62960 -79.53239 32960 ft 501 kts 181°
2026-05-07 14:38 9.55996 -79.53488 32961 ft 501 kts 181°
2026-05-07 14:39 9.49027 -79.53730 32956 ft 501 kts 181°
2026-05-07 14:39 9.42053 -79.53982 32955 ft 501 kts 181°
2026-05-07 14:40 9.35126 -79.54227 32959 ft 501 kts 181°
2026-05-07 14:40 9.28155 -79.54474 32955 ft 501 kts 181°
2026-05-07 14:41 9.21186 -79.54716 32948 ft 501 kts 181°
2026-05-07 14:41 9.14212 -79.54945 32945 ft 502 kts 181°
2026-05-07 14:42 9.07230 -79.55204 32942 ft 501 kts 181°
2026-05-07 14:42 9.00261 -79.55456 33175 ft 500 kts 181°
2026-05-07 14:43 8.96792 -79.55572 33536 ft 497 kts 181°
2026-05-07 14:43 8.93345 -79.55685 33913 ft 494 kts 182°
2026-05-07 14:43 8.89906 -79.55805 34105 ft 495 kts 182°
2026-05-07 14:43 8.86506 -79.55927 34344 ft 494 kts 182°
2026-05-07 14:44 8.83068 -79.56052 34592 ft 494 kts 182°
2026-05-07 14:44 8.79634 -79.56169 34762 ft 495 kts 182°
2026-05-07 14:44 8.76177 -79.56277 34891 ft 497 kts 182°
2026-05-07 14:44 8.72702 -79.56380 34912 ft 501 kts 182°
2026-05-07 14:45 8.65758 -79.56591 34942 ft 498 kts 182°
2026-05-07 14:45 8.58844 -79.56800 34930 ft 497 kts 182°
2026-05-07 14:46 8.51931 -79.57016 34942 ft 497 kts 182°
2026-05-07 14:46 8.45032 -79.57203 34953 ft 496 kts 182°
2026-05-07 14:47 8.38136 -79.57401 34945 ft 495 kts 182°
2026-05-07 14:47 8.31241 -79.57621 34951 ft 497 kts 182°
2026-05-07 14:48 8.24325 -79.57794 34933 ft 498 kts 181°
2026-05-07 14:48 8.17412 -79.57994 34940 ft 495 kts 182°
2026-05-07 14:49 8.10538 -79.58215 34962 ft 494 kts 182°
2026-05-07 14:49 8.03669 -79.58429 34962 ft 493 kts 182°